| time (UTC) | temp F | wind direction | speed knots | gust knots | rain 1hr in | rain 24hr in | rain mn in | humidity % | barometer mb |
| 20260505152916 | 66 | 208 | 10.4 | 20.9 | 0.00 | 0.00 | 0.00 | 52 | 1009.4 |
| 20260505152414 | 65 | 209 | 10.4 | 17.4 | 0.00 | 0.00 | 0.00 | 53 | 1009.5 |
| 20260505151913 | 64 | 209 | 10.4 | 17.4 | 0.00 | 0.00 | 0.00 | 56 | 1009.6 |
| 20260505151410 | 64 | 228 | 13.0 | 18.2 | 0.00 | 0.00 | 0.00 | 56 | 1009.6 |
| 20260505150908 | 64 | 212 | 15.6 | 20.9 | 0.00 | 0.00 | 0.00 | 54 | 1009.7 |
| 20260505150405 | 64 | 221 | 14.8 | 15.6 | 0.00 | 0.00 | 0.00 | 55 | 1009.7 |
| 20260505140334 | 59 | 213 | 7.8 | 13.0 | 0.00 | 0.00 | 0.00 | 63 | 1009.8 |
| 20260505130257 | 54 | 220 | 13.0 | 14.8 | 0.00 | 0.00 | 0.00 | 70 | 1010.1 |
| 20260505124748 | 53 | 218 | 9.6 | 13.0 | 0.00 | 0.00 | 0.00 | 74 | 1010.2 |
| 20260505124245 | 53 | 221 | 12.2 | 13.0 | 0.00 | 0.00 | 0.00 | 73 | 1010.3 |
| 20260505123740 | 53 | 230 | 7.8 | 15.6 | 0.00 | 0.00 | 0.00 | 75 | 1010.3 |
| 20260505123237 | 52 | 233 | 7.8 | 11.3 | 0.00 | 0.00 | 0.00 | 74 | 1010.5 |
| 20260505122734 | 52 | 214 | 7.0 | 14.8 | 0.00 | 0.00 | 0.00 | 74 | 1010.4 |
| 20260505122231 | 52 | 198 | 7.0 | 12.2 | 0.00 | 0.00 | 0.00 | 75 | 1010.6 |
| 20260505121728 | 51 | 209 | 10.4 | 13.0 | 0.00 | 0.00 | 0.00 | 75 | 1010.3 |
| 20260505121224 | 51 | 220 | 7.0 | 12.2 | 0.00 | 0.00 | 0.00 | 74 | 1010.5 |
| 20260505120721 | 51 | 220 | 8.7 | 16.5 | 0.00 | 0.00 | 0.00 | 75 | 1010.2 |
| 20260505120217 | 51 | 234 | 7.0 | 13.0 | 0.00 | 0.00 | 0.00 | 76 | 1010.3 |
| 20260505115715 | 50 | 210 | 7.0 | 16.5 | 0.00 | 0.00 | 0.00 | 76 | 1010.1 |
| 20260505115214 | 50 | 212 | 11.3 | 13.0 | 0.00 | 0.00 | 0.00 | 77 | 1010.1 |
| 20260505114711 | 50 | 222 | 13.0 | 15.6 | 0.00 | 0.00 | 0.00 | 77 | 1010.3 |
| 20260505114206 | 50 | 240 | 7.8 | 17.4 | 0.00 | 0.00 | 0.00 | 77 | 1010.6 |
| 20260505113703 | 50 | 230 | 9.6 | 17.4 | 0.00 | 0.00 | 0.00 | 77 | 1010.2 |
| 20260505113200 | 49 | 202 | 7.8 | 15.6 | 0.00 | 0.00 | 0.00 | 78 | 1010.3 |
| 20260505112656 | 49 | 213 | 10.4 | 14.8 | 0.00 | 0.00 | 0.00 | 78 | 1010.3 |
| 20260505112154 | 49 | 223 | 13.0 | 13.9 | 0.00 | 0.00 | 0.00 | 78 | 1010.6 |
| 20260505111653 | 49 | 218 | 15.6 | 17.4 | 0.00 | 0.00 | 0.00 | 78 | 1010.3 |
| 20260505111149 | 49 | 232 | 7.0 | 16.5 | 0.00 | 0.00 | 0.00 | 78 | 1010.3 |
| 20260505110646 | 49 | 221 | 7.8 | 15.6 | 0.00 | 0.00 | 0.00 | 79 | 1010.3 |
| 20260505110143 | 49 | 216 | 10.4 | 14.8 | 0.00 | 0.00 | 0.00 | 80 | 1010.0 |
| 20260505102119 | 47 | 222 | 6.1 | 13.0 | 0.00 | 0.00 | 0.00 | 84 | 1009.5 |
| 20260505101618 | 46 | 206 | 7.8 | 13.0 | 0.00 | 0.00 | 0.00 | 85 | 1009.7 |
| 20260505101113 | 46 | 219 | 7.8 | 13.9 | 0.00 | 0.00 | 0.00 | 85 | 1009.8 |
| 20260505100610 | 46 | 197 | 6.1 | 13.9 | 0.00 | 0.00 | 0.00 | 86 | 1009.6 |
| 20260505100107 | 46 | 214 | 10.4 | 13.0 | 0.00 | 0.00 | 0.00 | 86 | 1009.5 |
| 20260505095603 | 45 | 204 | 8.7 | 12.2 | 0.00 | 0.00 | 0.00 | 86 | 1009.6 |
| 20260505095100 | 45 | 195 | 7.8 | 13.0 | 0.00 | 0.00 | 0.00 | 87 | 1009.6 |
| 20260505094556 | 45 | 196 | 6.1 | 14.8 | 0.00 | 0.00 | 0.00 | 88 | 1009.5 |
| 20260505094052 | 44 | 198 | 11.3 | 13.9 | 0.00 | 0.00 | 0.00 | 89 | 1009.5 |
| 20260505093549 | 44 | 201 | 12.2 | 13.0 | 0.00 | 0.00 | 0.00 | 88 | 1009.3 |
| 20260505093046 | 44 | 190 | 3.5 | 11.3 | 0.00 | 0.00 | 0.00 | 88 | 1009.2 |
| 20260505092544 | 44 | 211 | 4.3 | 12.2 | 0.00 | 0.00 | 0.00 | 90 | 1009.2 |
| 20260505092042 | 44 | 191 | 7.0 | 13.0 | 0.00 | 0.00 | 0.00 | 90 | 1009.1 |
| 20260505091538 | 43 | 207 | 9.6 | 11.3 | 0.00 | 0.00 | 0.00 | 90 | 1009.1 |
| 20260505091037 | 43 | 187 | 4.3 | 10.4 | 0.00 | 0.00 | 0.00 | 91 | 1009.1 |
| 20260505090534 | 43 | 206 | 5.2 | 9.6 | 0.00 | 0.00 | 0.00 | 91 | 1009.0 |
| 20260505090032 | 42 | 177 | 4.3 | 7.8 | 0.00 | 0.00 | 0.00 | 91 | 1008.9 |
| 20260505085530 | 42 | 203 | 4.3 | 5.2 | 0.00 | 0.00 | 0.00 | 91 | 1009.0 |
| 20260505085028 | 42 | 200 | 2.6 | 4.3 | 0.00 | 0.00 | 0.00 | 91 | 1008.9 |
| 20260505084526 | 43 | 195 | 2.6 | 4.3 | 0.00 | 0.00 | 0.00 | 91 | 1009.1 |
| 20260505084023 | 43 | 188 | 2.6 | 4.3 | 0.00 | 0.00 | 0.00 | 91 | 1008.9 |
| 20260505083520 | 43 | 210 | 2.6 | 5.2 | 0.00 | 0.00 | 0.00 | 92 | 1008.9 |
| 20260505083017 | 43 | 217 | 5.2 | 5.2 | 0.00 | 0.00 | 0.00 | 92 | 1009.1 |
| 20260505082512 | 42 | 203 | 1.7 | 3.5 | 0.00 | 0.00 | 0.00 | 92 | 1009.1 |
| 20260505082009 | 42 | 208 | 2.6 | 4.3 | 0.00 | 0.00 | 0.00 | 92 | 1008.9 |
| 20260505081506 | 42 | 205 | 5.2 | 5.2 | 0.00 | 0.00 | 0.00 | 92 | 1009.0 |
| 20260505081003 | 42 | 168 | 3.5 | 4.3 | 0.00 | 0.00 | 0.00 | 91 | 1009.0 |
| 20260505080459 | 42 | 206 | 4.3 | 4.3 | 0.00 | 0.00 | 0.00 | 91 | 1009.1 |
| 20260505075955 | 43 | 229 | 6.1 | 8.7 | 0.00 | 0.00 | 0.00 | 91 | 1009.0 |
| 20260505075452 | 43 | 248 | 4.3 | 8.7 | 0.00 | 0.00 | 0.00 | 91 | 1009.1 |
| 20260505074949 | 43 | 226 | 8.7 | 11.3 | 0.00 | 0.00 | 0.00 | 91 | 1008.8 |
| 20260505074446 | 43 | 232 | 5.2 | 7.8 | 0.00 | 0.00 | 0.00 | 91 | 1008.8 |
| 20260505073943 | 43 | 237 | 4.3 | 7.8 | 0.00 | 0.00 | 0.00 | 91 | 1008.9 |
| 20260505073441 | 43 | 236 | 6.1 | 7.8 | 0.00 | 0.00 | 0.00 | 91 | 1009.0 |
| 20260505072938 | 43 | 235 | 4.3 | 7.8 | 0.00 | 0.00 | 0.00 | 91 | 1008.8 |
| 20260505072434 | 43 | 231 | 6.1 | 8.7 | 0.00 | 0.00 | 0.00 | 91 | 1008.6 |
| 20260505071930 | 43 | 242 | 5.2 | 7.8 | 0.00 | 0.00 | 0.00 | 91 | 1008.6 |
| 20260505071426 | 43 | 245 | 6.1 | 9.6 | 0.00 | 0.00 | 0.00 | 91 | 1008.6 |
| 20260505070925 | 43 | 249 | 7.0 | 13.0 | 0.00 | 0.00 | 0.00 | 91 | 1008.5 |
| 20260505070421 | 43 | 253 | 11.3 | 11.3 | 0.00 | 0.00 | 0.00 | 90 | 1008.3 |
| 20260505065916 | 43 | 237 | 7.0 | 11.3 | 0.00 | 0.00 | 0.00 | 91 | 1008.3 |
| 20260505065413 | 43 | 238 | 5.2 | 11.3 | 0.00 | 0.00 | 0.00 | 91 | 1008.3 |
| 20260505064910 | 43 | 240 | 8.7 | 11.3 | 0.00 | 0.00 | 0.00 | 90 | 1008.4 |
| 20260505064407 | 43 | 243 | 9.6 | 12.2 | 0.00 | 0.00 | 0.00 | 90 | 1008.2 |
| 20260505063906 | 43 | 244 | 8.7 | 9.6 | 0.00 | 0.00 | 0.00 | 90 | 1008.1 |
| 20260505063402 | 44 | 245 | 7.8 | 12.2 | 0.00 | 0.00 | 0.00 | 90 | 1008.1 |
| 20260505062858 | 44 | 240 | 8.7 | 12.2 | 0.00 | 0.00 | 0.00 | 90 | 1007.7 |
| 20260505062355 | 43 | 237 | 7.8 | 11.3 | 0.00 | 0.00 | 0.00 | 90 | 1007.8 |
| 20260505061852 | 43 | 230 | 8.7 | 14.8 | 0.00 | 0.00 | 0.00 | 90 | 1007.7 |
| 20260505061351 | 43 | 238 | 10.4 | 13.0 | 0.00 | 0.00 | 0.00 | 90 | 1007.8 |
| 20260505060848 | 43 | 252 | 13.0 | 13.9 | 0.00 | 0.00 | 0.00 | 90 | 1007.6 |
| 20260505060344 | 43 | 245 | 12.2 | 14.8 | 0.00 | 0.00 | 0.00 | 90 | 1007.6 |
| 20260505055840 | 43 | 245 | 10.4 | 13.0 | 0.00 | 0.00 | 0.00 | 90 | 1007.6 |
| 20260505055336 | 43 | 234 | 11.3 | 13.9 | 0.00 | 0.00 | 0.00 | 90 | 1007.3 |
| 20260505054834 | 43 | 236 | 10.4 | 13.9 | 0.00 | 0.00 | 0.00 | 90 | 1007.5 |
| 20260505054331 | 44 | 250 | 9.6 | 13.9 | 0.00 | 0.00 | 0.00 | 90 | 1007.4 |
| 20260505053829 | 44 | 245 | 7.8 | 15.6 | 0.00 | 0.00 | 0.00 | 90 | 1007.3 |
| 20260505053326 | 44 | 239 | 10.4 | 14.8 | 0.00 | 0.00 | 0.00 | 90 | 1007.2 |
| 20260505052822 | 44 | 247 | 9.6 | 15.6 | 0.00 | 0.00 | 0.00 | 90 | 1007.2 |
| 20260505052319 | 44 | 248 | 10.4 | 14.8 | 0.00 | 0.00 | 0.00 | 90 | 1007.0 |
| 20260505051817 | 44 | 243 | 13.0 | 14.8 | 0.00 | 0.00 | 0.00 | 90 | 1007.0 |
| 20260505051314 | 44 | 246 | 7.0 | 14.8 | 0.00 | 0.00 | 0.00 | 90 | 1007.2 |
| 20260505050812 | 44 | 240 | 7.8 | 13.9 | 0.00 | 0.00 | 0.00 | 90 | 1007.1 |
| 20260505050310 | 44 | 242 | 7.8 | 13.9 | 0.00 | 0.00 | 0.00 | 90 | 1007.3 |
| 20260505041740 | 44 | 255 | 5.2 | 13.0 | 0.00 | 0.00 | 0.00 | 89 | 1006.6 |
| 20260505041237 | 44 | 245 | 9.6 | 13.0 | 0.00 | 0.00 | 0.00 | 88 | 1006.6 |
| 20260505040735 | 44 | 249 | 7.0 | 15.6 | 0.00 | 0.00 | 0.00 | 88 | 1006.1 |
| 20260505040232 | 45 | 261 | 8.7 | 14.8 | 0.00 | 0.00 | 0.00 | 87 | 1006.3 |
| 20260505035729 | 45 | 248 | 11.3 | 20.9 | 0.00 | 0.00 | 0.00 | 87 | 1006.2 |
| 20260505035224 | 45 | 239 | 9.6 | 20.0 | 0.00 | 0.00 | 0.00 | 87 | 1006.3 |
| 20260505034722 | 45 | 244 | 11.3 | 19.1 | 0.00 | 0.00 | 0.00 | 87 | 1006.0 |
| 20260505034218 | 45 | 239 | 15.6 | 20.0 | 0.00 | 0.00 | 0.00 | 86 | 1005.9 |
| 20260505033715 | 45 | 245 | 17.4 | 20.9 | 0.00 | 0.00 | 0.00 | 86 | 1005.7 |
| 20260505033213 | 45 | 248 | 16.5 | 18.2 | 0.00 | 0.00 | 0.00 | 86 | 1005.7 |
| 20260505032711 | 45 | 243 | 11.3 | 20.0 | 0.00 | 0.00 | 0.00 | 86 | 1005.7 |
| 20260505032206 | 45 | 236 | 12.2 | 16.5 | 0.00 | 0.00 | 0.00 | 86 | 1005.5 |
| 20260505031704 | 45 | 238 | 11.3 | 14.8 | 0.00 | 0.00 | 0.00 | 85 | 1005.7 |
| 20260505031200 | 45 | 251 | 13.0 | 20.0 | 0.00 | 0.00 | 0.00 | 84 | 1005.6 |
| 20260505030657 | 46 | 242 | 13.9 | 19.1 | 0.00 | 0.00 | 0.00 | 84 | 1005.4 |
| 20260505030153 | 46 | 239 | 11.3 | 19.1 | 0.00 | 0.00 | 0.00 | 83 | 1005.4 |
| 20260505025649 | 46 | 244 | 13.0 | 17.4 | 0.00 | 0.01 | 0.01 | 84 | 1005.0 |
| 20260505025148 | 45 | 246 | 13.0 | 20.0 | 0.00 | 0.01 | 0.01 | 84 | 1005.0 |
| 20260505024645 | 45 | 236 | 12.2 | 17.4 | 0.00 | 0.01 | 0.01 | 84 | 1005.3 |
| 20260505024142 | 45 | 234 | 13.0 | 18.2 | 0.00 | 0.01 | 0.01 | 85 | 1004.9 |
| 20260505023639 | 45 | 245 | 14.8 | 17.4 | 0.00 | 0.01 | 0.01 | 85 | 1004.8 |
| 20260505023137 | 46 | 248 | 11.3 | 21.7 | 0.00 | 0.01 | 0.01 | 85 | 1004.9 |
| 20260505022634 | 46 | 239 | 13.9 | 19.1 | 0.00 | 0.01 | 0.01 | 84 | 1004.9 |
| 20260505022131 | 46 | 253 | 11.3 | 23.5 | 0.00 | 0.01 | 0.01 | 84 | 1004.6 |
| 20260505021627 | 46 | 248 | 13.9 | 19.1 | 0.00 | 0.01 | 0.01 | 84 | 1004.4 |
| 20260505021124 | 46 | 239 | 14.8 | 19.1 | 0.00 | 0.01 | 0.01 | 83 | 1004.5 |
| 20260505020620 | 46 | 240 | 12.2 | 15.6 | 0.00 | 0.01 | 0.01 | 84 | 1004.5 |
| 20260505020116 | 46 | 242 | 11.3 | 17.4 | 0.00 | 0.01 | 0.01 | 83 | 1004.5 |
| 20260505015613 | 46 | 244 | 13.0 | 17.4 | 0.00 | 0.01 | 0.01 | 83 | 1004.3 |
| 20260505015110 | 46 | 244 | 11.3 | 15.6 | 0.00 | 0.01 | 0.01 | 83 | 1004.3 |
| 20260505014607 | 46 | 250 | 12.2 | 18.2 | 0.00 | 0.01 | 0.01 | 82 | 1004.2 |
| 20260505014104 | 46 | 237 | 15.6 | 18.2 | 0.00 | 0.01 | 0.01 | 81 | 1004.2 |
| 20260505013601 | 47 | 241 | 13.0 | 20.9 | 0.00 | 0.01 | 0.01 | 80 | 1004.1 |
| 20260505013058 | 47 | 244 | 13.0 | 20.9 | 0.00 | 0.01 | 0.01 | 79 | 1004.1 |
| 20260505012556 | 47 | 247 | 13.0 | 20.9 | 0.00 | 0.01 | 0.01 | 78 | 1004.0 |
| 20260505012053 | 47 | 233 | 12.2 | 20.0 | 0.00 | 0.01 | 0.01 | 77 | 1003.7 |
| 20260505011548 | 48 | 242 | 15.6 | 23.5 | 0.00 | 0.01 | 0.01 | 77 | 1003.8 |
| 20260505011046 | 48 | 242 | 13.9 | 23.5 | 0.00 | 0.01 | 0.01 | 76 | 1003.9 |
| 20260505010541 | 48 | 236 | 16.5 | 21.7 | 0.00 | 0.01 | 0.01 | 75 | 1003.7 |
| 20260505010038 | 48 | 236 | 11.3 | 24.3 | 0.00 | 0.01 | 0.01 | 76 | 1003.6 |
| 20260505005534 | 48 | 240 | 19.1 | 24.3 | 0.00 | 0.01 | 0.01 | 75 | 1003.6 |
| 20260505005032 | 48 | 249 | 14.8 | 23.5 | 0.00 | 0.01 | 0.01 | 74 | 1003.5 |
| 20260505004529 | 48 | 241 | 13.9 | 22.6 | 0.00 | 0.01 | 0.01 | 74 | 1003.7 |
| 20260505004026 | 48 | 231 | 16.5 | 21.7 | 0.00 | 0.01 | 0.01 | 74 | 1003.5 |
| 20260505003523 | 48 | 248 | 15.6 | 22.6 | 0.00 | 0.01 | 0.01 | 74 | 1003.3 |
| 20260505003020 | 48 | 239 | 17.4 | 22.6 | 0.00 | 0.01 | 0.01 | 74 | 1003.2 |
| 20260505002521 | 48 | 241 | 15.6 | 25.2 | 0.00 | 0.01 | 0.01 | 74 | 1003.2 |
| 20260505002020 | 48 | 242 | 13.9 | 23.5 | 0.00 | 0.01 | 0.01 | 73 | 1003.2 |
| 20260505001517 | 49 | 231 | 17.4 | 26.1 | 0.00 | 0.01 | 0.01 | 72 | 1003.2 |
| 20260505001014 | 49 | 238 | 20.9 | 26.1 | 0.00 | 0.01 | 0.01 | 71 | 1002.8 |
| 20260505000511 | 49 | 239 | 20.9 | 22.6 | 0.00 | 0.01 | 0.01 | 71 | 1002.9 |
| 20260505000009 | 49 | 238 | 13.0 | 25.2 | 0.00 | 0.01 | 0.01 | 71 | 1002.8 |
| 20260504235505 | 49 | 235 | 16.5 | 22.6 | 0.00 | 0.01 | 0.01 | 71 | 1002.7 |
| 20260504235002 | 49 | 240 | 10.4 | 23.5 | 0.00 | 0.01 | 0.01 | 70 | 1002.6 |
| 20260504234459 | 49 | 243 | 15.6 | 23.5 | 0.00 | 0.01 | 0.01 | 68 | 1002.6 |
| 20260504233955 | 49 | 233 | 12.2 | 22.6 | 0.00 | 0.01 | 0.01 | 68 | 1002.4 |
| 20260504233451 | 49 | 234 | 14.8 | 22.6 | 0.00 | 0.01 | 0.01 | 69 | 1002.2 |
| 20260504232948 | 49 | 232 | 13.9 | 20.0 | 0.00 | 0.01 | 0.01 | 68 | 1002.2 |
| 20260504232445 | 50 | 237 | 12.2 | 20.0 | 0.00 | 0.01 | 0.01 | 66 | 1002.2 |
| 20260504231943 | 50 | 232 | 13.9 | 20.0 | 0.00 | 0.01 | 0.01 | 65 | 1002.1 |
| 20260504231439 | 50 | 234 | 9.6 | 20.9 | 0.00 | 0.01 | 0.01 | 64 | 1002.0 |
| 20260504230935 | 50 | 238 | 7.8 | 20.0 | 0.00 | 0.01 | 0.01 | 65 | 1001.9 |
| 20260504230432 | 50 | 236 | 15.6 | 20.0 | 0.00 | 0.01 | 0.01 | 64 | 1001.9 |
| 20260504225931 | 50 | 243 | 14.8 | 22.6 | 0.00 | 0.01 | 0.01 | 64 | 1001.7 |
| 20260504225427 | 50 | 228 | 10.4 | 19.1 | 0.00 | 0.01 | 0.01 | 64 | 1001.9 |
| 20260504224925 | 50 | 234 | 14.8 | 19.1 | 0.00 | 0.01 | 0.01 | 63 | 1001.6 |
| 20260504224421 | 50 | 223 | 12.2 | 16.5 | 0.00 | 0.01 | 0.01 | 64 | 1001.8 |
| 20260504223919 | 50 | 225 | 13.0 | 19.1 | 0.00 | 0.01 | 0.01 | 64 | 1001.8 |
| 20260504223414 | 50 | 245 | 18.2 | 19.1 | 0.00 | 0.01 | 0.01 | 63 | 1001.6 |
| 20260504222910 | 50 | 231 | 9.6 | 19.1 | 0.00 | 0.01 | 0.01 | 64 | 1001.6 |
| 20260504222408 | 49 | 238 | 11.3 | 21.7 | 0.00 | 0.01 | 0.01 | 66 | 1001.5 |
| 20260504221906 | 49 | 240 | 14.8 | 20.9 | 0.00 | 0.01 | 0.01 | 62 | 1001.3 |
| 20260504221402 | 49 | 248 | 11.3 | 21.7 | 0.00 | 0.01 | 0.01 | 63 | 1001.5 |
| 20260504220859 | 50 | 229 | 14.8 | 20.0 | 0.00 | 0.01 | 0.01 | 63 | 1001.4 |
| 20260504220356 | 50 | 242 | 13.9 | 26.1 | 0.00 | 0.01 | 0.01 | 61 | 1001.3 |
| 20260504215853 | 49 | 235 | 20.0 | 22.6 | 0.00 | 0.01 | 0.01 | 64 | 1001.3 |
| 20260504215349 | 49 | 243 | 16.5 | 20.9 | 0.00 | 0.01 | 0.01 | 68 | 1001.2 |
| 20260504214846 | 49 | 244 | 13.0 | 19.1 | 0.00 | 0.01 | 0.01 | 67 | 1001.3 |
| 20260504214343 | 49 | 247 | 13.0 | 23.5 | 0.00 | 0.01 | 0.01 | 68 | 1001.3 |
| 20260504213839 | 49 | 249 | 17.4 | 20.9 | 0.00 | 0.01 | 0.01 | 70 | 1001.2 |
| 20260504213335 | 50 | 239 | 16.5 | 18.2 | 0.00 | 0.01 | 0.01 | 69 | 1001.3 |
| 20260504212833 | 49 | 241 | 13.0 | 21.7 | 0.00 | 0.01 | 0.01 | 69 | 1001.4 |
| 20260504212328 | 50 | 243 | 13.9 | 19.1 | 0.00 | 0.01 | 0.01 | 68 | 1001.4 |
| 20260504211827 | 50 | 240 | 13.9 | 20.0 | 0.00 | 0.01 | 0.01 | 67 | 1001.3 |
| 20260504211328 | 50 | 249 | 12.2 | 17.4 | 0.00 | 0.01 | 0.01 | 67 | 1001.2 |
| 20260504210825 | 51 | 242 | 17.4 | 18.2 | 0.00 | 0.01 | 0.01 | 63 | 1001.2 |
| 20260504210322 | 53 | 244 | 13.9 | 21.7 | 0.00 | 0.01 | 0.01 | 59 | 1001.2 |
| 20260504205819 | 52 | 243 | 14.8 | 19.1 | 0.00 | 0.01 | 0.01 | 63 | 1001.1 |
| 20260504205317 | 52 | 243 | 11.3 | 18.2 | 0.00 | 0.01 | 0.01 | 63 | 1001.1 |
| 20260504204815 | 51 | 256 | 13.9 | 16.5 | 0.00 | 0.01 | 0.01 | 63 | 1000.9 |
| 20260504204313 | 51 | 244 | 12.2 | 20.0 | 0.00 | 0.01 | 0.01 | 64 | 1000.7 |
| 20260504203812 | 51 | 245 | 14.8 | 20.9 | 0.00 | 0.01 | 0.01 | 62 | 1000.8 |
| 20260504203309 | 51 | 241 | 13.0 | 23.5 | 0.00 | 0.01 | 0.01 | 63 | 1000.4 |
| 20260504202804 | 52 | 255 | 10.4 | 20.0 | 0.00 | 0.01 | 0.01 | 61 | 1000.5 |
| 20260504202302 | 52 | 249 | 12.2 | 19.1 | 0.00 | 0.01 | 0.01 | 61 | 1000.5 |
| 20260504201758 | 51 | 241 | 13.0 | 19.1 | 0.00 | 0.01 | 0.01 | 62 | 1000.5 |
| 20260504201255 | 51 | 239 | 14.8 | 17.4 | 0.00 | 0.01 | 0.01 | 64 | 1000.5 |
| 20260504200754 | 51 | 255 | 8.7 | 16.5 | 0.00 | 0.01 | 0.01 | 64 | 1000.6 |
| 20260504200249 | 51 | 236 | 16.5 | 20.0 | 0.00 | 0.01 | 0.01 | 62 | 1000.6 |
| 20260504195746 | 51 | 235 | 10.4 | 15.6 | 0.00 | 0.01 | 0.01 | 65 | 1000.5 |
| 20260504195241 | 51 | 246 | 20.0 | 22.6 | 0.00 | 0.01 | 0.01 | 61 | 1000.3 |
| 20260504194739 | 51 | 244 | 16.5 | 19.1 | 0.00 | 0.01 | 0.01 | 62 | 1000.1 |
| 20260504194235 | 51 | 245 | 15.6 | 19.1 | 0.00 | 0.01 | 0.01 | 61 | 1000.2 |
| 20260504193731 | 51 | 243 | 14.8 | 19.1 | 0.00 | 0.01 | 0.01 | 62 | 1000.0 |
| 20260504193229 | 51 | 252 | 15.6 | 24.3 | 0.00 | 0.01 | 0.01 | 61 | 1000.2 |
| 20260504192727 | 51 | 247 | 13.9 | 19.1 | 0.00 | 0.01 | 0.01 | 63 | 1000.0 |
| 20260504192225 | 50 | 241 | 18.2 | 21.7 | 0.00 | 0.01 | 0.01 | 62 | 1000.1 |
| 20260504191723 | 50 | 242 | 13.9 | 17.4 | 0.00 | 0.01 | 0.01 | 64 | 1000.0 |
| 20260504191220 | 50 | 244 | 13.9 | 21.7 | 0.00 | 0.01 | 0.01 | 64 | 999.8 |
| 20260504190715 | 50 | 236 | 17.4 | 23.5 | 0.00 | 0.01 | 0.01 | 63 | 1000.1 |
| 20260504190212 | 50 | 245 | 18.2 | 24.3 | 0.00 | 0.01 | 0.01 | 63 | 1000.2 |
| 20260504185708 | 50 | 241 | 17.4 | 24.3 | 0.00 | 0.01 | 0.01 | 66 | 1000.2 |
| 20260504185205 | 50 | 250 | 13.9 | 19.1 | 0.00 | 0.01 | 0.01 | 67 | 999.9 |
| 20260504184701 | 50 | 262 | 19.1 | 20.0 | 0.00 | 0.01 | 0.01 | 64 | 1000.1 |
| 20260504184156 | 50 | 242 | 11.3 | 18.2 | 0.00 | 0.01 | 0.01 | 67 | 1000.0 |
| 20260504183653 | 50 | 255 | 14.8 | 19.1 | 0.00 | 0.01 | 0.01 | 67 | 1000.1 |
| 20260504183150 | 50 | 257 | 13.0 | 20.0 | 0.00 | 0.01 | 0.01 | 66 | 999.9 |
| 20260504182648 | 50 | 253 | 9.6 | 17.4 | 0.00 | 0.01 | 0.01 | 67 | 999.8 |
| 20260504182145 | 49 | 247 | 12.2 | 21.7 | 0.00 | 0.01 | 0.01 | 68 | 999.8 |
| 20260504181643 | 49 | 260 | 15.6 | 21.7 | 0.00 | 0.01 | 0.01 | 69 | 999.9 |
| 20260504181140 | 49 | 246 | 20.9 | 23.5 | 0.00 | 0.01 | 0.01 | 69 | 999.9 |
| 20260504180639 | 49 | 252 | 13.9 | 22.6 | 0.00 | 0.01 | 0.01 | 69 | 1000.0 |
| 20260504180138 | 48 | 251 | 15.6 | 26.9 | 0.00 | 0.01 | 0.01 | 71 | 999.9 |
| 20260504175634 | 48 | 243 | 15.6 | 25.2 | 0.00 | 0.01 | 0.01 | 71 | 1000.1 |
| 20260504175131 | 48 | 243 | 22.6 | 26.1 | 0.00 | 0.01 | 0.01 | 71 | 999.8 |
| 20260504174630 | 48 | 243 | 20.9 | 26.9 | 0.00 | 0.01 | 0.01 | 73 | 999.8 |
| 20260504174125 | 49 | 250 | 14.8 | 22.6 | 0.00 | 0.01 | 0.01 | 73 | 999.9 |
| 20260504173623 | 48 | 249 | 14.8 | 24.3 | 0.00 | 0.01 | 0.01 | 73 | 999.6 |
| 20260504173120 | 48 | 256 | 12.2 | 24.3 | 0.00 | 0.01 | 0.01 | 75 | 999.5 |
| 20260504172616 | 49 | 240 | 13.0 | 26.1 | 0.00 | 0.01 | 0.01 | 72 | 999.5 |
| 20260504172113 | 48 | 251 | 15.6 | 26.1 | 0.00 | 0.01 | 0.01 | 73 | 999.4 |
| 20260504171609 | 48 | 251 | 12.2 | 22.6 | 0.00 | 0.01 | 0.01 | 75 | 999.6 |
| 20260504171107 | 48 | 245 | 14.8 | 22.6 | 0.00 | 0.01 | 0.01 | 75 | 999.4 |
| 20260504170602 | 49 | 237 | 18.2 | 27.8 | 0.00 | 0.01 | 0.01 | 73 | 999.2 |